Meteo Giornale » Osservazioni meteo Germania » Ramstein

ore: 17:55 - Osservazioni Meteo Ramstein
Lat. 49° 26' N Lon. 7° 36' E Alt. 238 metri s.l.m.

sereno

22 °C

Sereno

Temp. 24 Ore

17 °C

25 °C

Sud-Ovest

16.7 Km/h

Dew point 13 °C

Umidità 56 %

Visibilità  10 Km

Il sole sorge alle ore 06:44

Il sole tramonta alle ore 20:15

Data e Ora Cielo e Fenomeni T °C DP °C Um. % Pres. hPa Vis. km Vento km/h
Oggi h: 17:55 sereno Sereno 22 13 56 1015 10 SO 16.7
Oggi h: 16:55 sereno Sereno 22 13 56 1015 10 SO 24
Oggi h: 15:56 sereno Sereno 21 14 64 1015 10 SO 20.3
Oggi h: 15:55 coperto_pioggia Pioggia 21 14 64 1015 10 O/SO 27.8
Oggi h: 15:53 coperto_pioggia Pioggia 21 14 64 1015 10 O/SO 25.9
Oggi h: 14:56 poco_nuvoloso Poco Nuvoloso 19 16 82 1015 10 O 18.5
Oggi h: 14:55 coperto_pioggia Pioggia 19 16 82 1015 10 O 18.5
Oggi h: 14:28 coperto_pioggia Pioviggine 21 14 64 1015 10 O 20.3
Oggi h: 14:15 molto_nuvoloso Molto Nuvoloso 21 13 60 1014 10 O/SO 20.3
Oggi h: 14:05 coperto_pioggia Pioggia 21 13 60 1014 10 SO 13
Oggi h: 13:55 poco_nuvoloso Poco Nuvoloso 21 13 60 1014 10 SO 16.7
Oggi h: 12:55 poco_nuvoloso Poco Nuvoloso 21 15 68 1015 10 S/SO 14.8
Oggi h: 11:55 sereno Sereno 20 14 68 1015 10 SO 20.3
Oggi h: 10:55 nuvoloso Nuvoloso 18 15 82 1015 10 SO 14.8
Oggi h: 10:46 molto_nuvoloso Molto Nuvoloso 17 15 88 1015 10 S/SO 13
Oggi h: 10:41 coperto_pioggia Pioviggine 17 15 88 1015 10 S/SO 11.1
Oggi h: 10:20 molto_nuvoloso Molto Nuvoloso 17 15 88 1015 10 SO 16.7
Oggi h: 10:15 molto_nuvoloso Molto Nuvoloso 17 15 88 1015 10 SO 9.3
Oggi h: 10:10 coperto_pioggia Pioggia 17 15 88 1015 9 O/SO 14.8
Oggi h: 10:05 coperto_pioggia Pioggia Foschia 17 15 88 1015 6 O/SO 18.5
Oggi h: 09:55 coperto_pioggia Pioggia 17 14 82 1015 10 SO 13
Oggi h: 09:46 coperto_pioggia Pioggia 18 14 77 1015 10 SO 16.7
Oggi h: 09:45 molto_nuvoloso Molto Nuvoloso 18 14 77 1015 10 SO 16.7
Oggi h: 09:40 nuvoloso Nuvoloso 18 14 77 1015 10 SO 22.2
Oggi h: 09:30 molto_nuvoloso Molto Nuvoloso 18 14 77 1015 10 SO 11.1
Oggi h: 08:55 poco_nuvoloso Poco Nuvoloso 18 14 77 1014 10 SO 16.7
Oggi h: 07:55 molto_nuvoloso Molto Nuvoloso 18 14 77 1014 10 SO 14.8
Oggi h: 06:55 nuvoloso Nuvoloso 17 15 88 1014 10 SO 14.8
Oggi h: 05:55 nuvoloso Nuvoloso 18 15 82 1014 10 O/SO 11.1
Oggi h: 04:55 molto_nuvoloso Molto Nuvoloso 18 15 82 1013 10 SO 14.8
Oggi h: 04:45 molto_nuvoloso Molto Nuvoloso 18 15 82 1013 10 SO 13
Oggi h: 04:05 molto_nuvoloso Molto Nuvoloso 18 16 88 1013 10 O/SO 14.8
Oggi h: 03:55 nuvoloso Nuvoloso 17 16 93 1013 10 O/SO 11.1
Oggi h: 02:55 molto_nuvoloso Molto Nuvoloso 18 16 88 1013 10 O/SO 11.1
Oggi h: 02:54 molto_nuvoloso Molto Nuvoloso 18 16 88 1013 10 O/SO 11.1
Oggi h: 02:50 coperto_pioggia Pioggia 17 16 93 1013 10 N 5.5
Oggi h: 02:20 coperto_pioggia Pioggia 17 16 93 1013 9 O/SO 11.1
Oggi h: 01:55 coperto_pioggia Pioggia 17 16 93 1013 10 N 0
Oggi h: 00:55 coperto_pioggia Pioggia 17 16 93 1012 10 N 0
Ieri h: 23:55 coperto_pioggia Pioggia 18 15 82 1013 10 N 0
Ieri h: 23:32 coperto_pioggia Pioggia 18 14 77 1012 10 N 0
Ieri h: 22:55 nuvoloso Nuvoloso 18 14 77 1012 10 N 0
Ieri h: 21:55 nuvoloso Nuvoloso 18 14 77 1013 10 N 0
Ieri h: 20:55 poco_nuvoloso Poco Nuvoloso 18 14 77 1012 10 N 0
Ieri h: 19:55 sereno Sereno 23 12 49 1012 10 N 0
Ieri h: 18:55 sereno Sereno 25 11 41 1013 10 O/SO 11.1